SCP
0 0 0 0 0 0 0 0 0 0 0 0 0 0 0 0 0 0 0 0 0 0 0 0 0 0 0 0 0 0 0 0 0 0 0 0 0 0 0 0 0 0 0 0
0 0 0 0 0 0 0 0 0 0 0 0 0 0 0 0 0 0 0 0 0 0 0 0 0 0 0 0 0 0 0 0 0 0 0 0 0 0 0 0 0 0 0 0
0 0 0 0 0 0 0 0 0 0 0 0 0 0 0 0 0 0 0 0 0 0 0 0 0 0 0 0 0 0 0 0 0 0 0 0 0 0 0 0 0 0 0 0
0 0 0 0 0 0 0 0 0 0 0 0 0 0 0 0 0 0 0 0 0 0 0 0 0 0 0 0 0 0 0 0 0 0 0 0 0 0 0 0 0 0 0 0
0 0 0 0 0 0 0 0 0 0 0 0 0 0 0 0 0 0 0 0 0 0 0 0 0 0 0 0 0 0 0 0 0 0 0 0 0 0 0 0 0 0 0 0
0 0 0 0 0 0 0 0 0 0 0 0 0 0 0 0 0 0 0 0 0 0 0 1 1 1 1 0 0 0 0 0 0 0 0 0 0 0 0 0 0 0 0 0
0 0 0 0 0 0 0 0 0 0 0 0 0 0 0 0 0 0 0 0 0 1 1 1 1 1 1 0 0 0 0 0 0 0 0 0 0 0 0 0 0 0 0 0
0 0 0 0 0 0 0 0 0 0 0 0 0 0 0 0 0 0 0 0 1 1 1 1 1 1 1 0 0 0 0 0 0 0 0 0 0 0 0 0 0 0 0 0
0 0 0 0 0 0 0 0 0 0 0 0 0 0 0 0 1 1 1 1 1 1 1 1 1 1 1 0 0 0 0 0 0 0 0 0 0 0 0 0 0 0 0 0
0 0 0 0 0 0 0 0 0 0 0 0 0 0 0 0 1 1 1 1 1 1 1 1 1 0 0 0 0 0 0 0 0 0 0 0 0 0 0 0 0 0 0 0
0 0 0 0 0 0 0 0 0 0 0 0 0 0 0 0 1 1 0 0 0 0 1 0 0 0 0 0 0 0 0 0 0 0 0 0 0 0 0 0 0 0 0 0
0 0 0 0 0 0 0 0 0 0 0 0 0 0 0 0 0 0 0 0 0 0 0 0 0 0 0 0 0 0 0 0 0 0 0 0 0 0 0 0 0 0 0 0
0 0 0 0 0 0 0 0 0 0 0 0 0 0 0 0 0 0 0 0 0 0 0 0 0 0 0 0 0 0 0 0 0 0 0 0 0 0 0 0 0 0 0 0
0 0 0 0 0 0 0 0 0 0 0 0 0 0 0 0 0 0 0 0 0 0 0 0 0 0 0 0 0 0 0 0 0 0 0 0 0 0 0 0 0 0 0 0
0 0 0 0 0 0 0 0 0 0 0 0 0 0 0 0 0 0 0 0 0 0 0 0 0 0 0 0 0 0 0 0 0 0 0 0 0 0 0 0 0 0 0 0
0 0 0 0 0 0 0 0 0 0 0 0 0 0 0 0 0 0 0 0 0 0 0 0 0 0 0 0 0 0 0 0 0 0 0 0 0 0 0 0 0 0 0 0
0 0 0 0 0 0 0 0 0 0 0 0 0 0 0 0 0 0 0 0 0 0 0 0 0 0 0 0 0 0 0 0 0 0 0 0 0 0 0 0 0 0 0 0
0 0 0 0 0 0 0 0 0 0 0 0 0 0 0 0 0 0 0 0 0 0 0 0 0 0 0 0 0 0 0 0 0 0 0 0 0 0 0 0 0 0 0 0
0 0 0 0 0 0 0 0 0 0 0 0 0 0 0 0 0 0 0 0 0 0 0 0 0 0 0 0 0 0 0 0 0 0 0 0 0 0 0 0 0 0 0 0
0 0 0 0 0 0 0 0 0 0 0 0 0 0 0 0 0 0 0 0 0 0 0 0 0 0 0 0 0 0 0 0 0 0 0 0 0 0 0 0 0 0 0 0
0 0 0 0 0 0 0 0 0 0 0 0 0 0 0 0 0 0 0 0 0 0 0 0 0 0 0 0 0 0 0 0 0 0 0 0 0 0 0 0 0 0 0 0
0 0 0 0 0 0 0 0 0 0 0 0 0 0 0 0 0 0 0 0 0 0 0 0 0 0 0 0 0 0 0 0 0 0 0 0 0 0 0 0 0 0 0 0
0 0 0 0 0 0 0 0 0 0 0 0 0 0 0 0 0 0 0 0 0 0 0 0 0 0 0 0 0 0 0 0 0 0 0 0 0 0 0 0 0 0 0 0
0 0 0 0 0 0 0 0 0 0 0 0 0 0 0 0 0 0 0 0 0 0 0 0 0 0 0 0 0 0 0 0 0 0 0 0 0 0 0 0 0 0 0 0
0 0 0 0 0 0 0 0 0 0 0 0 0 0 0 0 0 0 0 0 0 0 0 0 0 0 0 0 0 0 0 0 0 0 0 0 0 0 0 0 0 0 0 0
0 0 0 0 0 0 0 0 0 0 0 0 0 0 0 0 0 0 0 0 0 0 0 0 0 0 0 0 0 0 0 0 0 0 0 0 0 0 0 0 0 0 0 0
0 0 0 0 0 0 0 0 0 0 0 0 0 0 0 0 0 0 0 0 0 0 0 0 0 0 0 0 0 0 0 0 0 0 0 0 0 0 0 0 0 0 0 0
Wind_Speed
11 8 7 8 9 11 13 12 10 8 7 5 7 10 13 15 16 17 18 18 17 16 15 15 14 14 14 13 13 12 12 11 11 10 9 8 8 7 7 7 7 6 6 6
10 9 9 10 10 11 13 12 12 12 10 4 5 8 11 15 17 18 18 19 18 17 17 16 16 15 14 14 13 13 13 12 11 10 10 9 9 8 8 7 7 6 6 6
10 8 9 12 11 12 12 11 11 11 7 2 5 8 11 14 17 19 19 19 19 18 17 16 16 15 15 15 14 13 13 12 11 11 11 10 10 9 8 8 7 7 7 7
8 7 11 5 2 6 9 9 9 9 6 3 5 6 8 12 16 17 18 18 18 17 17 16 16 15 14 14 14 14 13 12 12 11 11 10 10 9 8 7 7 7 7 7
7 10 9 4 2 4 7 7 4 7 6 3 3 6 8 9 12 15 16 16 16 16 16 15 15 15 15 15 14 14 13 13 12 12 11 11 10 9 8 7 7 7 7 7
8 9 7 1 2 1 6 6 1 3 4 2 3 6 4 4 8 11 12 12 12 13 14 15 15 15 15 15 15 14 14 13 12 11 11 11 10 8 7 7 7 7 7 7
10 9 4 4 3 4 6 2 5 3 2 3 3 4 2 1 5 7 10 11 11 12 13 13 14 15 15 14 14 13 12 12 11 11 11 10 9 8 7 7 7 7 7 7
7 8 2 5 1 2 5 5 4 4 3 3 3 2 1 1 4 6 9 10 12 11 11 12 14 15 14 14 13 12 12 12 11 11 10 9 9 8 8 7 8 8 8 8
3 1 4 2 3 5 5 5 5 4 4 3 3 2 1 1 3 5 7 9 10 11 11 11 12 13 13 12 11 11 11 11 10 10 9 8 9 9 8 8 7 7 6 6
3 1 3 2 3 4 5 5 5 5 4 3 3 2 1 1 2 4 6 8 9 11 11 11 11 11 10 10 11 11 11 10 10 9 9 9 7 8 7 7 7 7 6 7
5 3 2 2 5 5 5 5 4 3 2 2 1 0 1 1 2 3 5 6 7 8 9 10 10 10 10 10 10 10 10 9 9 9 8 7 8 6 7 6 5 6 7 6
4 5 5 4 5 6 5 4 4 3 2 2 1 1 2 3 3 4 5 6 7 8 9 9 10 9 9 9 10 9 9 8 7 7 6 6 6 7 7 8 5 7 8 9
5 6 6 5 4 4 3 3 3 3 3 3 4 3 4 4 5 5 6 6 6 7 8 9 9 9 8 8 9 8 7 6 5 5 5 5 5 5 5 7 11 12 12 12
3 3 2 2 3 4 3 3 4 5 5 5 5 5 5 6 6 6 6 6 6 7 8 8 8 8 8 8 7 7 6 5 4 3 4 4 4 5 5 6 5 6 9 14
3 2 1 2 3 3 3 4 5 6 7 6 6 6 6 6 6 6 6 6 7 7 7 7 7 7 7 7 7 6 5 4 3 3 4 4 4 5 5 6 6 6 6 5
2 3 4 4 5 5 5 6 7 6 6 6 6 6 6 6 6 6 6 6 6 7 7 6 6 6 6 6 6 5 4 3 2 3 3 4 4 4 5 5 6 6 6 7
3 4 5 5 5 6 6 6 6 6 6 7 7 6 6 6 6 6 6 6 5 6 6 6 6 5 6 5 4 3 3 4 5 4 3 3 3 4 5 6 6 6 6 5
5 5 5 6 6 6 7 7 7 7 7 7 7 6 6 6 5 5 5 5 6 7 6 5 5 4 4 4 2 1 1 1 1 1 2 2 3 5 6 6 7 8 7 5
8 8 8 8 7 7 7 7 7 7 7 6 7 7 6 6 5 5 5 5 5 5 5 5 5 4 4 4 1 1 1 1 1 2 2 2 4 5 5 6 6 7 7 7
9 8 9 9 9 8 8 8 8 7 7 6 7 7 6 6 5 5 5 5 4 4 4 4 4 4 4 3 2 1 1 1 2 2 3 4 4 5 6 6 7 7 7 7
8 8 8 8 8 8 8 7 7 7 6 6 6 6 6 5 4 4 3 4 5 4 3 3 2 2 2 1 3 1 1 2 3 4 4 5 5 6 6 7 7 7 7 7
6 6 7 7 6 6 6 6 6 6 6 6 6 5 5 4 4 5 5 4 3 3 1 1 3 4 3 3 2 2 3 4 4 4 5 5 6 6 7 7 7 7 7 8
6 5 6 6 5 5 5 5 5 5 5 5 5 4 4 4 3 3 3 4 3 3 2 3 5 4 3 4 3 3 4 5 5 5 5 6 6 7 7 8 7 7 7 8
6 6 6 5 4 5 5 5 5 4 4 3 4 4 3 2 2 3 3 3 3 3 2 4 3 1 5 4 4 4 4 5 5 5 6 6 6 7 7 7 7 7 7 8
6 5 5 5 4 4 4 3 2 2 2 2 3 3 3 3 3 3 3 3 2 2 2 1 2 3 5 4 4 4 5 5 5 6 6 6 7 7 6 7 6 6 7 7
5 4 5 5 5 4 3 3 3 3 3 3 3 3 3 3 3 2 2 3 3 3 4 3 2 3 4 4 5 5 5 4 5 5 6 6 7 7 6 7 8 7 6 6
3 2 2 3 3 4 4 4 4 4 4 4 4 3 3 3 3 4 4 4 4 3 3 4 4 4 4 4 4 4 5 5 5 5 6 6 5 5 6 7 6 6 6 6
Wind_Direction
257 263 256 250 234 220 228 251 268 273 269 234 199 192 186 184 183 182 184 187 189 187 186 186 184 184 185 184 182 182 185 190 189 191 190 195 196 200 202 210 217 219 228 233
242 244 249 252 246 236 238 250 259 268 271 260 192 191 189 189 189 189 189 190 191 191 188 188 186 185 183 183 180 182 188 191 189 190 191 195 199 202 205 212 221 224 231 240
240 230 239 243 242 242 241 242 252 257 262 206 195 198 199 196 195 195 193 192 192 192 191 189 188 185 184 182 180 185 191 191 189 191 194 197 201 201 207 213 218 225 233 239
242 229 240 252 271 261 254 251 251 262 274 261 246 228 213 204 201 199 196 194 193 192 191 189 186 184 184 180 181 186 191 192 191 193 195 196 200 204 210 216 221 228 237 244
242 237 242 221 206 250 253 251 259 262 267 269 265 228 201 200 203 202 198 195 192 191 188 184 182 180 179 180 183 187 191 192 192 194 196 197 201 205 209 216 225 232 237 245
236 244 242 185 95 234 251 235 5 275 265 258 241 233 154 160 196 198 198 193 189 185 182 178 177 174 178 183 185 191 193 192 191 193 197 201 202 205 207 215 228 239 241 246
235 242 239 66 97 212 239 35 28 340 298 267 251 301 5 176 190 191 188 184 180 177 177 176 171 173 182 185 189 192 190 188 189 193 198 200 200 204 210 219 229 242 250 251
231 240 227 72 167 292 1 2 336 324 310 293 280 290 319 165 171 178 178 176 175 173 173 171 171 175 183 189 188 185 184 186 189 192 199 195 199 206 211 221 228 235 242 252
274 330 51 26 344 351 335 315 320 320 314 302 287 274 282 171 166 168 171 170 169 167 165 166 173 180 184 184 180 180 182 185 188 192 198 201 202 207 212 216 236 243 247 256
262 200 9 5 353 340 327 314 310 309 304 290 281 269 227 150 146 152 164 162 164 163 162 165 172 179 181 173 173 177 181 184 187 192 198 200 211 215 222 226 234 246 255 264
267 313 330 41 8 350 342 335 326 322 325 307 286 247 145 129 126 145 153 152 157 161 162 162 165 169 170 168 168 175 180 184 190 196 200 203 211 223 232 237 250 261 272 277
323 356 328 343 354 348 341 348 1 13 26 20 19 91 107 108 113 132 142 146 153 157 155 154 158 160 162 162 169 176 180 186 193 199 195 208 215 218 215 235 229 233 248 267
322 329 325 319 325 343 346 4 26 41 44 47 58 73 89 96 107 120 127 137 148 148 144 146 147 148 154 162 169 176 180 181 195 202 199 212 225 238 240 223 224 233 236 238
329 325 311 339 2 16 32 49 58 66 68 66 70 78 86 91 96 105 113 122 130 129 130 136 138 138 144 151 161 171 178 169 192 199 213 223 232 245 253 264 259 245 227 223
25 360 19 36 43 55 68 78 79 75 77 74 74 79 85 91 93 91 95 108 117 119 120 126 129 129 135 146 158 169 177 175 188 210 222 232 241 249 256 262 272 278 280 233
56 81 92 85 75 72 78 81 79 76 74 75 73 74 80 85 88 90 94 104 114 113 115 118 120 124 135 146 158 167 168 142 193 226 234 239 248 261 267 272 274 278 281 287
96 95 90 83 77 73 69 70 73 76 76 73 72 72 77 80 82 83 85 91 97 98 104 109 114 119 127 136 157 159 150 148 182 227 248 270 276 277 279 279 281 283 285 299
73 78 83 86 84 80 76 73 73 73 73 75 77 78 80 82 85 88 91 99 101 96 93 97 102 109 112 117 120 126 137 150 212 281 290 285 292 285 282 283 286 288 292 282
78 77 78 78 76 73 70 66 66 68 71 79 83 82 81 83 86 92 98 100 101 98 90 94 107 115 109 100 118 168 170 220 258 273 279 268 264 277 287 289 292 294 295 297
82 79 78 77 74 73 70 66 65 63 63 72 79 81 79 77 81 85 86 79 65 67 89 99 114 106 108 111 268 217 233 280 294 296 289 289 292 295 295 298 300 300 301 302
85 83 81 77 74 70 69 70 74 72 67 70 77 80 79 76 77 82 88 85 78 71 88 119 121 97 83 51 261 286 306 300 295 295 298 299 299 300 302 304 304 303 305 306
83 84 81 77 73 70 66 64 64 68 70 68 67 67 67 67 66 64 59 57 68 56 31 74 69 60 28 312 295 314 308 302 300 300 299 300 301 303 304 305 305 307 308 308
68 70 74 74 74 72 66 61 58 59 60 61 60 49 40 31 29 38 47 47 38 26 346 37 59 57 330 289 298 304 307 306 306 307 307 305 304 304 304 304 306 308 308 311
53 57 62 65 66 65 59 51 47 49 53 56 58 51 32 25 27 28 34 65 47 7 352 64 77 5 289 286 297 304 309 310 309 310 309 306 305 307 308 308 308 310 313 313
55 56 55 47 45 44 52 52 60 65 48 40 35 34 22 22 13 13 8 12 29 312 318 108 174 245 275 298 305 310 313 323 324 319 311 312 313 315 315 315 316 315 313 313
41 38 41 33 26 9 8 11 15 23 22 19 13 16 15 12 5 351 329 326 331 321 310 312 304 277 295 309 312 317 318 310 295 294 310 316 318 321 320 320 316 313 312 313
42 40 30 23 29 16 7 7 7 10 9 1 351 354 354 349 341 338 333 326 325 324 327 323 314 308 311 315 320 323 318 316 318 318 318 318 321 323 321 316 313 314 314 312